#timestamp,LO_Frequency,Hit,StdDev 
1624687215.3,286046998.9,N
1624687235.1,286046998.5,N
1624687255.9,286046998.1,N
1624687275.7,286046998.3,N
1624687295.5,286046998.8,N
1624687315.4,286046998.2,N
1624687335.2,286046998.6,N
1624687355.1,286046999.1,N
1624687356.0,286046999.1,N
1624687375.8,286046998.7,N
1624687395.6,286046998.8,N
1624687415.5,286046999.0,N
1624687435.3,286046998.7,N
1624687455.1,286046996.6,Y
1624687475.9,286046998.2,P
1624687495.7,286046998.8,P
1624687515.6,286046999.3,N
1624687535.4,286046998.4,Y
1624687555.2,286047000.3,P
1624687575.1,286047000.7,N
1624687576.0,286047000.7,N
1624687595.8,286046998.9,N
1624687615.7,286046997.8,N
1624687635.5,286046996.6,Y
1624687655.3,286046998.1,P
1624687675.2,286046998.3,N
1624687695.0,286046999.2,N
1624687695.9,286046999.2,N
1624687715.8,286046997.3,Y
1624687735.6,286046998.8,P
1624687755.4,286046999.1,P
1624687775.3,286046997.1,P
1624687795.1,286046998.6,N
1624687815.8,286046999.6,N
1624687865.7,286046998.9,E
1624687875.6,286047000.8,N
1624687895.4,286047001.1,P
1624687915.3,286047000.4,N
1624687935.1,286047000.6,N
1624687955.9,286047002.3,Y
1624687975.7,286046998.5,P
1624687995.5,286046998.6,N
1624688015.4,286047001.2,N
1624688035.2,286047002.3,N
1624688055.1,286047004.4,N
1624688056.0,286047004.4,N
1624688075.8,286047001.4,N
1624688095.6,286047001.8,N
1624688115.5,286047004.0,N
1624688135.3,286047001.8,N
1624688155.2,286047001.6,N
1624688175.9,286047004.0,N
1624688195.7,286047004.3,N
1624688215.6,286047001.4,N
1624688235.4,286047003.9,N
1624688255.3,286047004.4,N
1624688275.1,286047004.4,N
1624688276.0,286047004.4,N
1624688295.8,286046999.9,N
1624688315.7,286046999.8,N
1624688335.5,286047000.6,N
1624688355.4,286047000.0,N
1624688375.2,286047002.3,N
1624688395.0,286047002.5,N
1624688395.9,286047002.5,N
1624688415.8,286047001.5,N
1624688435.6,286047001.3,N
1624688455.4,286047004.0,N
1624688475.3,286047004.4,N
1624688495.1,286047003.7,N
1624688515.9,286047003.4,N
1624688535.7,286047004.4,N
1624688555.5,286047003.9,N
1624688575.4,286047001.4,N
1624688595.2,286047003.9,N
1624688615.0,286047003.1,N
1624688615.9,286047003.1,N
1624688635.8,286047001.3,N
1624688655.6,286047001.6,N
1624688675.5,286047002.8,N
1624688695.3,286047001.7,N
1624688715.1,286047003.2,N
1624688735.9,286047001.4,N
1624688755.7,286047002.2,N
1624688775.5,286047002.3,N
1624688795.4,286047002.4,N
1624688815.2,286047002.8,N
1624688835.1,286047002.3,N
1624688836.0,286047002.3,N
1624688855.8,286047004.3,Y
1624688875.6,286047000.9,P
1624688895.5,286046999.9,N
1624688915.3,286047000.8,N
1624688935.1,286047000.0,N
1624688955.9,286047000.8,N
1624688975.7,286047002.3,N
1624688995.6,286047002.4,N
1624689015.4,286047000.0,N
1624689035.2,286047001.2,N
1624689055.1,286047000.9,N
1624689056.0,286047000.9,N
1624689075.8,286047000.5,N
1624689095.7,286047002.7,Y
1624689115.5,286046999.0,P
1624689135.3,286046998.2,N
1624689155.2,286046996.9,N
1624689175.9,286046999.1,N
1624689195.7,286046997.0,N
1624689215.6,286046998.6,N
1624689235.4,286046998.1,N
1624689255.2,286046998.1,N
1624689275.1,286046998.2,N
1624689276.0,286046998.2,N
1624689295.8,286047000.6,N
1624689315.7,286047001.0,N
1624689335.5,286047000.7,N
1624689355.3,286047001.1,N
1624689375.2,286047000.6,N
1624689395.0,286047000.9,N
1624689395.9,286047000.9,N
1624689415.7,286046999.9,N
1624689435.6,286047000.5,N
1624689455.4,286047001.0,N
1624689475.3,286047000.5,N
1624689495.1,286047001.0,N
1624689496.0,286047001.0,N
1624689515.8,286047000.8,N
1624689535.7,286047000.7,N
1624689555.5,286047000.8,N
1624689575.4,286047001.0,N
1624689595.2,286047000.5,N
1624689615.0,286047001.2,N
1624689615.9,286047001.2,N
1624689635.8,286047001.0,N
1624689655.6,286046999.2,N
1624689675.4,286046998.2,N
1624689695.3,286046998.3,N
1624689715.1,286046998.7,N
1624689735.9,286047001.0,N
1624689755.7,286047001.1,N
1624689775.5,286046998.5,N
1624689795.4,286046998.2,N
1624689815.2,286047000.3,N
1624689835.0,286047000.2,N
1624689835.9,286047000.2,N
1624689855.8,286047000.9,N
1624689875.6,286046998.8,N
1624689895.5,286047000.8,N
1624689915.3,286047000.4,N
1624689935.1,286046998.1,N
1624689955.9,286046998.2,N
1624689975.7,286047000.5,N
1624689995.6,286047000.8,N
1624690015.4,286047000.9,N
1624690035.2,286047000.1,N
1624690055.1,286047001.6,N
1624690056.0,286047001.6,N
1624690075.8,286047001.7,N
1624690095.6,286047000.2,N
1624690115.5,286047000.3,N
1624690135.3,286046999.9,N
1624690155.1,286047000.3,N
1624690175.9,286047000.3,N
1624690195.7,286046999.7,N
1624690215.6,286047000.0,N
1624690235.4,286047002.5,N
1624690255.2,286047002.4,N
1624690275.1,286047004.4,Y
1624690276.0,286047004.4,P
1624690295.8,286047002.7,N
1624690315.7,286046999.9,N
1624690335.5,286046999.9,N
1624690355.3,286046999.8,N
1624690375.2,286047004.0,N
1624690395.0,286047004.4,N
1624690395.9,286047004.4,N
1624690415.7,286047003.1,N
1624690435.6,286047005.8,N
1624690455.4,286047005.7,N
1624690475.3,286047007.6,Y
1624690495.1,286047001.9,P
1624690515.8,286047003.6,P
1624690535.7,286047005.4,P
1624690555.5,286047005.8,Y
1624690575.4,286047001.5,P
1624690595.2,286047004.2,P
1624690615.0,286047003.2,N
1624690615.9,286047003.2,Y
1624690635.8,286046999.9,P
1624690655.6,286047002.7,N
1624690675.5,286046999.9,N
1624690695.3,286047001.2,N
1624690715.1,286046999.9,N
1624690735.9,286047000.3,N
1624690755.7,286047000.4,N
1624690775.6,286046998.3,N
1624690795.4,286047000.3,N
